When you browse on this site, cookies collect data to enhance your experience and personalize the content and advertising you see.
Visit our Privacy Policy to learn more. By continuing to use the site, you agree to this use of cookies and data.
  • In Slovakia
  • List of Countries
  • For 7 days
  • Water Temperature
  • Weather Map
  • Weather Widgets
  • user-avatar
    Login

    Hourly Weather Orda

    Today, 16 September, Monday

    Time Temperature Precipitation Wind Pressure Humidity
    00:00 +14°C° 0.1 mm 6 mps 738 mmHg 69%
    01:00 +13°C° 0.1 mm 6 mps 738 mmHg 72%
    02:00 +14°C° 0 mm 5 mps 738 mmHg 69%
    03:00 +13°C° 0.1 mm 5 mps 738 mmHg 71%
    04:00 +11°C° 0.1 mm 6 mps 738 mmHg 72%
    05:00 +11°C° 0.1 mm 6 mps 738 mmHg 74%
    06:00 +11°C° 0 mm 6 mps 738 mmHg 73%
    07:00 +11°C° 0 mm 7 mps 738 mmHg 73%
    08:00 +11°C° 0 mm 7 mps 738 mmHg 73%
    09:00 +12°C° 0 mm 7 mps 738 mmHg 68%
    10:00 +13°C° 0 mm 8 mps 738 mmHg 62%
    11:00 +15°C° 0 mm 8 mps 738 mmHg 57%
    12:00 +15°C° 0 mm 8 mps 738 mmHg 58%
    13:00 +13°C° 0 mm 8 mps 738 mmHg 58%
    14:00 +13°C° 0 mm 8 mps 738 mmHg 59%
    15:00 +13°C° 0 mm 8 mps 738 mmHg 60%
    16:00 +12°C° 0 mm 8 mps 738 mmHg 61%
    17:00 +12°C° 0 mm 7 mps 738 mmHg 62%
    18:00 +11°C° 0 mm 7 mps 738 mmHg 64%
    19:00 +10°C° 0 mm 6 mps 738 mmHg 67%
    20:00 +9°C° 0 mm 5 mps 738 mmHg 70%
    21:00 +9°C° 0 mm 5 mps 737 mmHg 72%
    22:00 +8°C° 0 mm 5 mps 737 mmHg 73%
    23:00 +8°C° 0 mm 5 mps 737 mmHg 75%

    Tomorrow, 17 September, Tuesday

    Time Temperature Precipitation Wind Pressure Humidity
    00:00 +8°C° 0 mm 5 mps 737 mmHg 75%
    01:00 +7°C° 0 mm 5 mps 737 mmHg 75%
    02:00 +7°C° 0 mm 5 mps 737 mmHg 75%
    03:00 +7°C° 0 mm 5 mps 737 mmHg 77%
    04:00 +6°C° 0 mm 5 mps 736 mmHg 79%
    05:00 +6°C° 0 mm 5 mps 736 mmHg 80%
    06:00 +6°C° 0 mm 5 mps 736 mmHg 80%
    07:00 +7°C° 0 mm 6 mps 736 mmHg 79%
    08:00 +8°C° 0 mm 6 mps 736 mmHg 79%
    09:00 +9°C° 0 mm 7 mps 736 mmHg 73%
    10:00 +10°C° 0 mm 7 mps 736 mmHg 67%
    11:00 +12°C° 0 mm 7 mps 736 mmHg 61%
    12:00 +12°C° 0.2 mm 7 mps 735 mmHg 61%
    13:00 +12°C° 0.2 mm 7 mps 735 mmHg 61%
    14:00 +12°C° 0.2 mm 7 mps 734 mmHg 61%
    15:00 +13°C° 0.4 mm 6 mps 734 mmHg 64%
    16:00 +11°C° 0.4 mm 6 mps 733 mmHg 68%
    17:00 +12°C° 0.4 mm 5 mps 733 mmHg 72%
    18:00 +10°C° 0.4 mm 5 mps 733 mmHg 77%
    19:00 +10°C° 0.4 mm 4 mps 732 mmHg 81%
    20:00 +8°C° 0.4 mm 4 mps 732 mmHg 85%
    21:00 +7°C° 0.3 mm 5 mps 732 mmHg 85%
    22:00 +7°C° 0.3 mm 6 mps 731 mmHg 85%
    23:00 +5°C° 0.3 mm 7 mps 731 mmHg 85%

    Day after tomorrow, 18 September, Wednesday

    Time Temperature Precipitation Wind Pressure Humidity
    00:00 +4°C° 0 mm 6 mps 731 mmHg 88%
    01:00 +4°C° 0 mm 6 mps 731 mmHg 90%
    02:00 +3°C° 0 mm 5 mps 731 mmHg 92%
    03:00 +3°C° 0 mm 6 mps 731 mmHg 90%
    04:00 +4°C° 0 mm 6 mps 731 mmHg 89%
    05:00 +4°C° 0 mm 6 mps 731 mmHg 87%
    06:00 +4°C° 0 mm 6 mps 731 mmHg 86%
    07:00 +4°C° 0 mm 7 mps 732 mmHg 86%
    08:00 +4°C° 0 mm 7 mps 732 mmHg 85%
    09:00 +5°C° 0.1 mm 7 mps 733 mmHg 83%
    10:00 +5°C° 0.1 mm 7 mps 733 mmHg 82%
    11:00 +6°C° 0.1 mm 7 mps 734 mmHg 80%
    12:00 +8°C° 0.1 mm 7 mps 735 mmHg 77%
    13:00 +9°C° 0.1 mm 7 mps 735 mmHg 73%
    14:00 +10°C° 0.1 mm 7 mps 736 mmHg 70%
    15:00 +10°C° 0.1 mm 6 mps 736 mmHg 69%
    16:00 +10°C° 0.1 mm 6 mps 737 mmHg 69%
    17:00 +10°C° 0.1 mm 5 mps 738 mmHg 69%
    18:00 +9°C° 0.1 mm 5 mps 738 mmHg 75%
    19:00 +8°C° 0.1 mm 5 mps 738 mmHg 81%
    20:00 +7°C° 0.1 mm 5 mps 739 mmHg 87%
    21:00 +6°C° 0 mm 5 mps 739 mmHg 89%
    22:00 +6°C° 0 mm 5 mps 739 mmHg 91%
    23:00 +6°C° 0 mm 5 mps 740 mmHg 93%

    19 September, Thursday

    Time Temperature Precipitation Wind Pressure Humidity
    00:00 +6°C° 0 mm 5 mps 740 mmHg 92%
    01:00 +6°C° 0 mm 5 mps 740 mmHg 90%
    02:00 +7°C° 0 mm 5 mps 740 mmHg 88%
    03:00 +6°C° 0 mm 5 mps 741 mmHg 88%
    04:00 +6°C° 0 mm 5 mps 741 mmHg 88%
    05:00 +6°C° 0 mm 5 mps 741 mmHg 88%
    06:00 +6°C° 0 mm 5 mps 741 mmHg 88%
    07:00 +6°C° 0 mm 5 mps 742 mmHg 87%
    08:00 +6°C° 0 mm 5 mps 742 mmHg 86%
    09:00 +7°C° 0.1 mm 5 mps 742 mmHg 82%
    10:00 +8°C° 0.1 mm 4 mps 743 mmHg 77%
    11:00 +10°C° 0.1 mm 4 mps 743 mmHg 72%
    12:00 +11°C° 0.3 mm 4 mps 743 mmHg 71%
    13:00 +11°C° 0.3 mm 4 mps 743 mmHg 69%
    14:00 +11°C° 0.3 mm 4 mps 743 mmHg 68%
    15:00 +11°C° 0.1 mm 4 mps 743 mmHg 70%
    16:00 +11°C° 0.1 mm 3 mps 743 mmHg 71%
    17:00 +11°C° 0.1 mm 3 mps 743 mmHg 73%
    18:00 +9°C° 0.1 mm 3 mps 743 mmHg 77%
    19:00 +8°C° 0.1 mm 3 mps 743 mmHg 81%
    20:00 +7°C° 0.1 mm 3 mps 743 mmHg 86%
    21:00 +7°C° 0 mm 3 mps 743 mmHg 86%
    22:00 +5°C° 0 mm 3 mps 743 mmHg 86%
    23:00 +5°C° 0 mm 4 mps 743 mmHg 86%

    20 September, Friday

    Time Temperature Precipitation Wind Pressure Humidity
    00:00 +5°C° 0 mm 4 mps 743 mmHg 89%
    01:00 +4°C° 0 mm 4 mps 743 mmHg 91%
    02:00 +2°C° 0 mm 5 mps 743 mmHg 93%
    03:00 +2°C° 0 mm 5 mps 744 mmHg 93%
    04:00 +2°C° 0 mm 5 mps 744 mmHg 93%
    05:00 +2°C° 0 mm 6 mps 744 mmHg 93%
    06:00 +2°C° 0 mm 6 mps 744 mmHg 90%
    07:00 +3°C° 0 mm 6 mps 744 mmHg 87%
    08:00 +3°C° 0 mm 7 mps 744 mmHg 85%
    09:00 +4°C° 0.2 mm 6 mps 745 mmHg 82%
    10:00 +6°C° 0.2 mm 5 mps 745 mmHg 79%
    11:00 +6°C° 0.2 mm 4 mps 745 mmHg 76%
    12:00 +7°C° 0.3 mm 4 mps 745 mmHg 71%
    13:00 +8°C° 0.3 mm 5 mps 745 mmHg 66%
    14:00 +9°C° 0.3 mm 5 mps 745 mmHg 61%
    15:00 +10°C° 0.4 mm 4 mps 746 mmHg 65%
    16:00 +8°C° 0.4 mm 4 mps 746 mmHg 69%
    17:00 +7°C° 0.4 mm 4 mps 746 mmHg 72%
    18:00 +6°C° 0 mm 4 mps 747 mmHg 78%
    19:00 +5°C° 0 mm 4 mps 747 mmHg 83%
    20:00 +4°C° 0 mm 3 mps 748 mmHg 88%
    21:00 +3°C° 0 mm 3 mps 748 mmHg 89%
    22:00 +3°C° 0 mm 3 mps 748 mmHg 90%
    23:00 +2°C° 0 mm 3 mps 749 mmHg 92%

    21 September, Saturday

    Time Temperature Precipitation Wind Pressure Humidity
    00:00 +2°C° 0 mm 3 mps 749 mmHg 92%
    01:00 +1°C° 0 mm 3 mps 749 mmHg 93%
    02:00 +1°C° 0 mm 3 mps 749 mmHg 93%
    03:00 +1°C° 0 mm 3 mps 749 mmHg 92%
    04:00 0°C° 0 mm 3 mps 749 mmHg 91%
    05:00 0°C° 0 mm 3 mps 749 mmHg 90%
    06:00 +2°C° 0 mm 2 mps 750 mmHg 86%
    07:00 +3°C° 0 mm 2 mps 750 mmHg 82%
    08:00 +4°C° 0 mm 2 mps 750 mmHg 78%
    09:00 +5°C° 0 mm 2 mps 750 mmHg 72%
    10:00 +7°C° 0 mm 2 mps 750 mmHg 67%
    11:00 +8°C° 0 mm 2 mps 750 mmHg 62%
    12:00 +9°C° 0 mm 3 mps 750 mmHg 60%
    13:00 +10°C° 0 mm 3 mps 750 mmHg 59%
    14:00 +10°C° 0 mm 3 mps 750 mmHg 57%
    15:00 +10°C° 0 mm 3 mps 750 mmHg 60%
    16:00 +10°C° 0 mm 2 mps 750 mmHg 64%
    17:00 +10°C° 0 mm 2 mps 750 mmHg 67%
    18:00 +9°C° 0 mm 2 mps 750 mmHg 72%
    19:00 +8°C° 0 mm 2 mps 750 mmHg 77%
    20:00 +7°C° 0 mm 2 mps 750 mmHg 81%
    21:00 +7°C° 0 mm 1 mps 750 mmHg 84%
    22:00 +7°C° 0 mm 1 mps 750 mmHg 87%
    23:00 +6°C° 0 mm 1 mps 750 mmHg 90%
    Show more